Hourly Data Report for January 14, 2022

BANCROFT AUTO
ONTARIO
Current Station Operator: ECCC - MSC

45°04'17.000" N
77°52'44.000" W
330.70 m
616I001
71294
WRK

Download Data

Hourly Data (January 2022)
Hourly Data Report for January 14, 2022
TIME
LST
Temp Definition
°C
Dew Point Definition
°C
Rel Hum Definition
%
Precip. Amount Definition
mm

Wind Dir Definition
10's deg

Wind Spd Definition
km/h
Visibility Definition
km
Stn Press Definition
kPa
Hmdx Definition


Wind Chill Definition


Weather Definition


00:00 -5.1 -7.9 81 0.0 32 10   97.35   -9 LegendNANA
01:00 -5.8 -9.0 78 0.0 34 8   97.42   -10 LegendNANA
02:00 -7.2 -9.9 80 0.0 1 9   97.50   -12 LegendNANA
03:00 -8.9 -12.1 77 0.0 3 9   97.63   -14 LegendNANA
04:00 -10.1 -13.6 76 0.0 1 12   97.71   -16 LegendNANA
05:00 -11.6 -15.2 75 0.0 36 15   97.86   -19 LegendNANA
06:00 -15.0 -18.4 75 0.0 1 8   98.02   -20 LegendNANA
07:00 -16.4 -19.5 77 0.0 35 11   98.13   -23 LegendNANA
08:00 -18.2 -21.5 75 0.0 36 15   98.25   -27 LegendNANA
09:00 -19.9 -23.8 71 0.0 36 18   98.36   -30 LegendNANA
10:00 -20.2 -25.1 65 0.0 36 15   98.46   -29 LegendNANA
11:00 -19.6 -25.8 58 0.0 36 15   98.49   -29 LegendNANA
12:00 -19.1 -26.3 53 0.0 35 17   98.47   -29 LegendNANA
13:00 -18.5 -26.6 49 0.0 1 16   98.43   -28 LegendNANA
14:00 -18.3 -26.9 47 0.0 34 17   98.46   -28 LegendNANA
15:00 -18.5 -27.0 47 0.0 34 17   98.51   -28 LegendNANA
16:00 -19.0 -26.7 50 0.0 36 13   98.56   -27 LegendNANA
17:00 -20.3 -27.3 54 0.0 35 11   98.62   -28 LegendNANA
18:00 -21.0 -27.8 55 0.0 35 13   98.68   -30 LegendNANA
19:00 -21.8 -27.5 60 0.0 35 10   98.78   -29 LegendNANA
20:00 -22.5 -27.7 62 0.0 36 13   98.80   -31 LegendNANA
21:00 -23.2 -28.3 63 0.0 1 12   98.85   -32 LegendNANA
22:00 -24.2 -29.1 64 0.0 36 12   98.84   -33 LegendNANA
23:00 -24.9 -29.7 65 0.0 36 13   98.86   -34 LegendNANA

Notes on Data Quality.

Legend

  • E = Estimated
  • M = Missing
  • NA = Not Available*
  • [empty] = Indicates an unobserved value
Date modified: